This is the latest recevied weather packets stored in our database for station/object XQ6AK-15. If no packets are shown the sender has not sent any weather packets the latest 10 day(s).
| Time | Temp. | Humidity | Pressure | Rain* | Wind** | Luminosity | Snow |
|---|---|---|---|---|---|---|---|
| 1787402867 | 2.22° C | 99% | 1019.4 hPa | 0 mm | - | 17 W/m² | - |
| 1787402562 | 2.22° C | 99% | 1019.2 hPa | 0 mm | - | 16 W/m² | - |
| 1787402261 | 2.22° C | 99% | 1019.1 hPa | 0 mm | - | 14 W/m² | - |
| 1787401956 | 2.22° C | 99% | 1019 hPa | 0 mm | - | 15 W/m² | - |
| 1787401652 | 2.22° C | 99% | 1019.1 hPa | 0 mm | - | 16 W/m² | - |
| 1787401347 | 2.22° C | 99% | 1019 hPa | 0 mm | - | 18 W/m² | - |
| 1787401042 | 2.22° C | 99% | 1019.1 hPa | 0 mm | - | 15 W/m² | - |
| 1787400738 | 2.22° C | 99% | 1019.3 hPa | 0 mm | - | 11 W/m² | - |
| 1787400437 | 2.22° C | 99% | 1019.2 hPa | 0 mm | - | 9 W/m² | - |
| 1787400133 | 2.22° C | 99% | 1019.2 hPa | 0 mm | - | 6 W/m² | - |
| 1787399830 | 1.67° C | 99% | 1019 hPa | 0 mm | - | 5 W/m² | - |
| 1787399526 | 1.67° C | 99% | 1019.1 hPa | 0 mm | - | 3 W/m² | - |
| 1787399224 | 1.67° C | 99% | 1018.9 hPa | 0 mm | - | 1 W/m² | - |
| 1787398920 | 1.67° C | 99% | 1019.2 hPa | 0 mm | - | 0 W/m² | - |
| 1787398615 | 1.67° C | 99% | 1018.7 hPa | 0 mm | - | 0 W/m² | - |
| 1787398312 | 1.67° C | 99% | 1019 hPa | 0 mm | - | 0 W/m² | - |
| 1787398007 | 1.67° C | 99% | 1018.5 hPa | 0 mm | - | 0 W/m² | - |
| 1787397707 | 1.67° C | 99% | 1019.1 hPa | 0 mm | - | 0 W/m² | - |
| 1787397407 | 1.67° C | 99% | 1019.3 hPa | 0 mm | - | 0 W/m² | - |
| 1787397102 | 1.11° C | 99% | 1019 hPa | 0 mm | - | 0 W/m² | - |
| 1787396797 | 1.11° C | 99% | 1019.1 hPa | 0 mm | - | 0 W/m² | - |
| 1787396493 | 1.11° C | 99% | 1019.2 hPa | 0 mm | - | 0 W/m² | - |
| 1787396192 | 1.11° C | 99% | 1019.2 hPa | 0 mm | - | 0 W/m² | - |
| 1787395887 | 1.11° C | 99% | 1019.1 hPa | 0 mm | - | 0 W/m² | - |
| 1787395582 | 1.11° C | 99% | 1018.7 hPa | 0 mm | - | 0 W/m² | - |
* Rain latest hour (hover to see other rain measurements)
** Current wind speed in m/s (hover to see current wind gust speed)